Regional Weather Roundup
Issued by NWS

Home | Current Version | Previous Version | Text Only | Print | Product List | Glossary Off
Versions: 1 2 3 4 5 6 7 8 9 10 11 12 13 14 15 16 17 18 19 20 21 22 23 24 25 26 27 28 29 30 31 32 33 34 35 36 37 38 39 40 41 42 43 44 45 46 47 48 49 50

000
ASUS43 KMPX 210110
RWRMN
WEATHER ROUNDUP FOR MINNESOTA
NATIONAL WEATHER SERVICE TWIN CITIES/CHANHASSEN MN
700 PM CST MON NOV 20 2017


NOTE: "FAIR" INDICATES FEW OR NO CLOUDS BELOW 12,000 FEET WITH NO
SIGNIFICANT WEATHER AND/OR OBSTRUCTIONS TO VISIBILITY. N/A MEANS
CURRENT SKY AND/OR WEATHER CONDITIONS ARE NOT AVAILABLE.

MNZ060>063-068>070-210200-
   Twin Cities Metro

CITY           SKY/WX    TMP DP  RH WIND       PRES   REMARKS
TWIN CITIES    MOCLDY    45  29  53 SW8       29.46R
ST PAUL        PTCLDY    45  29  53 W9        29.47R
CRYSTAL        PTCLDY    44  26  49 SW9       29.44S
BLAINE         MOCLDY    46  28  49 SW9       29.44S
LAKEVILLE      PTCLDY    43  28  56 SW12G17   29.47S
EDEN PRAIRIE   PTCLDY    45  27  49 SW12      29.46R
SOUTH ST PAUL  PTCLDY    46  28  49 SW10      29.46F
LAKE ELMO      FAIR      43  32  65 SW10      29.47S
$$
MNZ001>005-007-008-013>017-022>024-027-028-210200-
   Northwest Minnesota

CITY           SKY/WX    TMP DP  RH WIND       PRES   REMARKS
BEMIDJI        MOCLDY    40  29  66 W25G38    29.32R
HALLOCK        CLOUDY    30  25  80 NW36G43   29.40R WCI  14
ROSEAU         CLOUDY    34  28  80 W23G31    29.28R WCI  22
WARROAD        CLOUDY    37  32  81 W26G36    29.24R
THIEF RVR FALL CLOUDY    35  30  82 NW24G33   29.37R WCI  23
CROOKSTON      PTCLDY    36  27  69 NW35G46   29.43R
FOSSTON        CLOUDY    37  28  70 W21G32    29.38R
DETROIT LAKES  CLEAR     41  32  70 W28G39    29.43R
MOORHEAD       CLEAR     39  30  70 W24G31    29.49R
PARK RAPIDS    CLEAR     42  29  59 NW33G55   29.35R
MAHNOMEN       FAIR      38  30  74 W25G35    29.40R
$$
MNZ006-009>011-018-025>026-210200-
   North Central Minnesota

CITY           SKY/WX    TMP DP  RH WIND       PRES   REMARKS
BAUDETTE       CLOUDY    38  30  73 W17G33    29.20R
FLAG ISLAND    DRIZZLE   36  28  75 W21G30    29.18R
INTL FALLS     CLOUDY    40  26  57 SW15G21   29.19S
WASKISH        CLOUDY    37  30  75 W17G24    29.26R
BIG FORK       CLEAR     41  27  56 W14       29.25S
LONGVILLE      CLOUDY    39  27  60 W8        29.32R
GRAND RAPIDS   CLEAR     38  26  62 SW8       29.30F
CRANE LAKE     CLOUDY    39  27  60 SW6       29.21F
ORR            CLOUDY    37  25  60 SW8       29.20S
COOK           CLOUDY    39  27  60 SW9       29.23F
WALKER         FAIR      42  27  54 W30G39    29.32R
$$
MNZ012-019>021-037-210200-
   Northeast Minnesota

CITY           SKY/WX    TMP DP  RH WIND       PRES   REMARKS
DULUTH         PTCLDY    34  27  75 W17       29.30F WCI  23
ELY            CLEAR     36  27  69 SW12      29.23F
HIBBING        CLOUDY    34  27  75 S5        29.27F WCI  30
EVELETH        CLOUDY    34  25  69 SW10      29.28F WCI  26
DULUTH HARBOR  CLEAR     37  30  75 SW10      29.32F
TWO HARBORS    CLEAR     34  28  80 W7        29.27F WCI  28
SILVER BAY     CLEAR     30  28  93 CALM      29.26F
GRAND MARAIS     N/A     33  31  92 NW3       29.26F
G MARAIS ARPRT CLOUDY    30  25  80 S7        29.22F WCI  23
$$
MNZ029>031-032-039>041-046>048-054>057-064-210200-
   West Central Minnesota

CITY           SKY/WX    TMP DP  RH WIND       PRES   REMARKS
FERGUS FALLS   CLEAR     43  28  56 NW18G26   29.48R
WHEATON        CLEAR     46  25  42 W21G29    29.52R
MORRIS         CLEAR     43  27  52 W16       29.49R
ALEXANDRIA     CLEAR     44  25  47 W17       29.46R
ELBOW LAKE     FAIR      43  27  54 NW22G28   29.47R
WADENA         CLEAR     45  27  49 W15G24    29.39R
GLENWOOD       CLEAR     37  28  70 W12       29.46R
APPLETON         N/A     45  25  45 W14       29.50R
BENSON         PTCLDY    39  27  60 W12       29.50R
ORTONVILLE     CLEAR     43  25  49 MISG      29.52R
MADISON        CLEAR     45  27  49 W7        29.52R
WILLMAR        FAIR      37  28  70 W9        29.49R
$$
MNZ033>034-036-042>043-049>051-058-059-210200-
   Central Minnesota

CITY           SKY/WX    TMP DP  RH WIND       PRES   REMARKS
ST CLOUD       CLEAR     35  28  75 SW8       29.42S WCI  29
SAUK CENTRE    FAIR      41  28  58 W16       29.43S
PAYNESVILLE    CLEAR     37  30  77 W9        29.46R
AITKIN         MOCLDY    36  27  69 SW12G18   29.33S
PINE RIVER     CLOUDY    39  27  60 W7        29.38S
BRAINERD       MOCLDY    37  28  70 SW10      29.37R
STAPLES        CLEAR     41  25  52 W14       29.39R
LONG PRAIRIE   FAIR      39  28  65 SW9       29.42R
LITTLE FALLS   CLEAR     37  23  56 W5        29.41S
LITCHFIELD     CLEAR     43  30  61 SW7       29.47R
BUFFALO        CLOUDY    41  28  60 S9        29.45F
MAPLE LAKE     CLEAR     40  30  68 SW5       29.44F
HUTCHINSON     CLEAR     42  29  61 SW9       29.49S
$$
MNZ037-044-045-052-053-210200-
   East Central Minnesota

CITY           SKY/WX    TMP DP  RH WIND       PRES   REMARKS
PRINCETON      CLEAR     37  30  75 SW7       29.41F
MORA           CLEAR     36  30  80 SW7       29.40S
CAMBRIDGE      CLOUDY    41  28  60 S8        29.40F
RUSH CITY      CLOUDY    40  29  65 SW9       29.39F
MOOSE LAKE     CLEAR     34  28  80 SW8       29.34R WCI  27
HINCKLEY       FAIR      34  30  86 SW7       29.37F WCI  28
CLOQUET        CLEAR     34  27  75 SW9       29.32R WCI  26
MCGREGOR       PTCLDY    36  30  80 SW6       29.33F
$$
MNZ071>073-080-081-089-090-097-098-210200-
   Southwest Minnesota

CITY           SKY/WX    TMP DP  RH WIND       PRES   REMARKS
MONTEVIDEO     CLEAR     43  25  49 NW8       29.50R
GRANITE FALLS  CLEAR     44  28  54 SW14      29.52S
CANBY          CLEAR     47  26  43 W13       29.54S
MARSHALL       CLEAR     43  26  51 SW17      29.53R
REDWOOD FALLS  CLEAR     44  26  49 W12       29.51R
OLIVIA         CLEAR     36  28  75 W10       29.49S
PIPESTONE      CLOUDY    36  25  64 SW5       29.57R
WINDOM         MOCLDY    41  25  52 SW9       29.55R
WORTHINGTON    CLOUDY    43  26  51 W16       29.58R
JACKSON        PTCLDY    43  28  56 SW10      29.55S
SLAYTON        MOCLDY    43  27  53 W14       29.57R
$$
MNZ065>067-074>077-082>085-091>093-210200-
   South Central Minnesota

CITY           SKY/WX    TMP DP  RH WIND       PRES   REMARKS
MANKATO        CLOUDY    44  28  53 W14       29.52R
NEW ULM        PTCLDY    43  27  52 CALM      29.51S
ST JAMES       PTCLDY    45  28  53 SW14      29.54R
FAIRMONT       CLOUDY    44  29  55 W14       29.55R
GLENCOE        PTCLDY    43  30  59 SW8       29.48S
FARIBAULT      CLOUDY    45  30  57 SW10      29.50R
OWATONNA       MOCLDY    45  30  57 SW15      29.52R
WASECA         CLOUDY    41  30  65 SW10      29.54R
ALBERT LEA     CLOUDY    46  27  46 SW9G18    29.53S
$$
MNZ078>079-086>088-094>096-210200-
   Southeast Minnesota

CITY           SKY/WX    TMP DP  RH WIND       PRES   REMARKS
ROCHESTER      CLOUDY    44  31  60 SW20      29.51R
RED WING       MOCLDY    46  27  46 W7        29.48R
STANTON        PTCLDY    45  31  59 SW10      29.48R
DODGE CENTER   CLOUDY    43  28  56 SW15G21   29.51S
WINONA         CLOUDY    52  32  46 SW15G22   29.49S
PRESTON        CLOUDY    47  29  50 SW15G25   29.53R
$$
ABBREVIATIONS USED IN REMARKS
   TC - TEMPERATURES IN CELSIUS
  WCI - WIND CHILL INDEX
   HX - HEAT INDEX
  VSB - VISIBILITY
$$



USA.gov is the U.S. government's official web portal to all federal, state and local government web resources and services.